Location: Champs
(48.8539°N, 2.6040°E)
Time: 06:06:08
(UTC+00:00)

Cosmos 2082 Rocket - Pass Details

Date: 26 October 2021
Orbit: 834 x 853 km, 71.0° (Epoch: 04 December)

Event Time Altitude Azimuth Distance (km) Brightness Sun altitude
Exits shadow 02:52:02 25° 11° (NNE) 1,658 3.9 -35.4°
Drops below altitude 10° 02:54:26 10° 22° (NNE) 2,489 5.1 -35.0°
Sets 02:56:58 0° 27° (NNE) 3,427 6.0 -34.6°
